Location: Caltech
(34.1382°N, 118.1253°W)
Time: 07:46:12
(UTC-07:00)

NOAA 19 - Visible Passes

Search period start: 29 July 2014 00:00
Search period end: 08 August 2014 00:00
Orbit: 843 x 863 km, 98.9° (Epoch: 28 July)

Date Brightness Start Highest point End Pass type
(mag) Time Alt. Az. Time Alt. Az. Time Alt. Az.
29 Jul 6.7 02:14:26 10° NE 02:18:30 29° E 02:18:30 29° E visible
29 Jul 6.1 03:55:02 10° N 03:59:50 31° WNW 04:00:33 30° W visible
30 Jul 7.1 02:03:47 10° NE 02:07:16 22° E 02:07:16 22° E visible
30 Jul 5.8 03:43:47 10° N 03:48:53 39° WNW 03:49:19 39° W visible
31 Jul 7.4 01:53:18 10° NE 01:56:01 17° E 01:56:01 17° E visible
31 Jul 5.5 03:32:35 10° N 03:37:55 50° WNW 03:38:04 50° WNW visible
01 Aug 7.6 01:43:07 10° ENE 01:44:46 13° E 01:44:46 13° E visible
01 Aug 5.3 03:21:26 10° N 03:26:50 64° WNW 03:26:50 64° WNW visible
02 Aug 5.2 03:10:21 10° N 03:15:35 77° NNW 03:15:35 77° NNW visible
03 Aug 5.4 02:59:19 10° NNE 03:04:20 71° NE 03:04:20 71° NE visible
03 Aug 7.2 04:42:53 10° NW 04:44:51 12° WNW 04:46:23 11° WNW visible
04 Aug 5.7 02:48:20 10° NNE 02:53:05 57° ENE 02:53:05 57° ENE visible
04 Aug 7.0 04:30:53 10° NNW 04:33:59 15° WNW 04:35:08 15° WNW visible
05 Aug 6.1 02:37:25 10° NNE 02:41:50 44° ENE 02:41:50 44° ENE visible
05 Aug 6.7 04:19:15 10° NNW 04:23:05 20° WNW 04:23:53 19° WNW visible
06 Aug 6.5 02:26:33 10° NNE 02:30:35 35° ENE 02:30:35 35° ENE visible
06 Aug 6.5 04:07:47 10° NNW 04:12:10 24° WNW 04:12:38 24° WNW visible
07 Aug 6.9 02:15:47 10° NE 02:19:20 27° ENE 02:19:20 27° ENE visible
07 Aug 6.2 03:56:26 10° N 04:01:14 31° WNW 04:01:23 31° WNW visible
